Weather History for Mobile, AL

Change the Weather History Date:

Wednesday, October 9, 2013

  Actual Average Record
Temperature  
Mean Temperature 72 °F 70 °F  
Max Temperature 81 °F 81 °F 94 °F (1941)
Min Temperature 63 °F 60 °F 42 °F (2000)
Degree Days  
Heating Degree Days 0 1  
Month to date heating degree days 0 5  
Since 1 July heating degree days 0 7  
Cooling Degree Days 7 6  
Month to date cooling degree days 88 66  
Year to date cooling degree days 2368 2370  
Growing Degree Days 22 (Base 50)    
Moisture  
Dew Point 63 °F    
Average Humidity 80    
Maximum Humidity 93    
Minimum Humidity 67    
Precipitation  
Precipitation 0.00 in 0.12 in 5.03 in (1905)
Month to date precipitation 1.60 1.13  
Year to date precipitation 57.89 53.40  
Sea Level Pressure  
Sea Level Pressure 30.06 in    
Wind  
Wind Speed 7 mph (ENE)    
Max Wind Speed 12 mph    
Max Gust Speed 16 mph    
Visibility 9 miles    
Events      
T = Trace of Precipitation, MM = Missing Value Source: NWS Daily Summary

Daily Weather History Graph

Daily Weather History Graph

Search for Another Location

Airport:

Trip Planner

Search our weather history database for the weather conditions in past years. The results will help you decide how hot, cold, wet, or windy it might be!

Date:

Astronomy

Oct. 09, 2013 Rise Set
Actual Time 6:51 AM CDT 6:28 PM CDT
Civil Twilight 6:27 AM CDT 6:52 PM CDT
Nautical Twilight 5:59 AM CDT 7:20 PM CDT
Astronomical Twilight 5:31 AM CDT 7:48 PM CDT
Moon 11:31 AM CDT (10/9) 10:18 PM CDT (10/9)
Length of Visible Light 12h 24m
Length of Day
11h 36m
Waxing Crescent, 25% of the Moon is Illuminated
Oct 9
Waxing Crescent
Oct 11
First Quarter
Oct 18
Full
Oct 26
Last Quarter
Nov 3
New

Hourly Weather History & Observations

Time (CDT) Temp. Dew Point Humidity Pressure Visibility Wind Dir Wind Speed Gust Speed Precip Events Conditions
12:56 AM 64.9 °F 55.9 °F 73% 30.02 in 10.0 mi North 5.8 mph - 0.01 in   Mostly Cloudy
1:56 AM 64.9 °F 55.9 °F 73% 30.02 in 10.0 mi North 3.5 mph - N/A   Partly Cloudy
2:56 AM 64.0 °F 57.0 °F 78% 30.01 in 10.0 mi NNE 4.6 mph - N/A   Clear
3:56 AM 63.0 °F 57.9 °F 84% 30.01 in 10.0 mi NNE 5.8 mph - N/A   Clear
4:56 AM 63.0 °F 59.0 °F 87% 30.01 in 10.0 mi NE 5.8 mph - 0.01 in   Scattered Clouds
5:56 AM 64.0 °F 61.0 °F 90% 30.03 in 6.0 mi NE 4.6 mph - N/A   Scattered Clouds
6:56 AM 64.0 °F 62.1 °F 93% 30.04 in 7.0 mi ENE 4.6 mph - N/A   Scattered Clouds
7:56 AM 66.0 °F 62.1 °F 87% 30.06 in 7.0 mi ENE 8.1 mph - N/A   Mostly Cloudy
8:40 AM 68.0 °F 62.6 °F 83% 30.08 in 7.0 mi East 10.4 mph - N/A   Mostly Cloudy
8:56 AM 68.0 °F 63.0 °F 84% 30.08 in 7.0 mi ENE 6.9 mph - N/A   Mostly Cloudy
9:09 AM 69.8 °F 62.6 °F 78% 30.09 in 7.0 mi ENE 9.2 mph - N/A   Mostly Cloudy
9:24 AM 69.8 °F 62.6 °F 78% 30.10 in 7.0 mi ENE 10.4 mph - N/A   Mostly Cloudy
9:56 AM 71.1 °F 63.0 °F 75% 30.10 in 7.0 mi ENE 9.2 mph - N/A   Mostly Cloudy
10:56 AM 73.9 °F 64.0 °F 71% 30.11 in 10.0 mi NE 8.1 mph - N/A   Mostly Cloudy
11:56 AM 75.9 °F 64.9 °F 69% 30.11 in 10.0 mi ENE 10.4 mph - N/A   Mostly Cloudy
11:58 AM 75.2 °F 64.4 °F 69% 30.11 in 10.0 mi NE 9.2 mph - N/A   Mostly Cloudy
12:48 PM 75.2 °F 64.4 °F 69% 30.09 in 10.0 mi Variable 5.8 mph - N/A   Mostly Cloudy
12:56 PM 75.9 °F 64.9 °F 69% 30.09 in 10.0 mi East 9.2 mph - N/A   Mostly Cloudy
1:35 PM 77.0 °F 66.2 °F 69% 30.08 in 10.0 mi East 8.1 mph - N/A   Mostly Cloudy
1:56 PM 79.0 °F 66.9 °F 66% 30.06 in 10.0 mi East 8.1 mph - N/A   Mostly Cloudy
2:56 PM 78.1 °F 66.0 °F 66% 30.06 in 10.0 mi ENE 6.9 mph - N/A   Mostly Cloudy
3:21 PM 78.8 °F 66.2 °F 65% 30.06 in 10.0 mi SE 5.8 mph - N/A   Mostly Cloudy
3:51 PM 78.8 °F 66.2 °F 65% 30.06 in 10.0 mi East 5.8 mph - N/A   Mostly Cloudy
3:56 PM 79.0 °F 66.9 °F 66% 30.05 in 10.0 mi NE 5.8 mph - N/A   Mostly Cloudy
4:29 PM 77.0 °F 66.2 °F 69% 30.05 in 10.0 mi ENE 9.2 mph - N/A   Scattered Clouds
4:56 PM 78.1 °F 66.9 °F 68% 30.04 in 10.0 mi ENE 6.9 mph - N/A   Scattered Clouds
5:56 PM 75.9 °F 66.0 °F 71% 30.04 in 10.0 mi NE 5.8 mph - N/A   Scattered Clouds
6:56 PM 72.0 °F 66.0 °F 81% 30.05 in 10.0 mi NE 6.9 mph - 0.01 in   Scattered Clouds
7:56 PM 71.1 °F 66.0 °F 84% 30.07 in 10.0 mi NE 8.1 mph - N/A   Scattered Clouds
8:56 PM 69.1 °F 64.9 °F 87% 30.08 in 10.0 mi NE 6.9 mph - N/A   Scattered Clouds
9:56 PM 66.9 °F 64.0 °F 90% 30.09 in 10.0 mi NE 4.6 mph - N/A   Partly Cloudy
10:56 PM 66.0 °F 64.0 °F 93% 30.09 in 9.0 mi ENE 4.6 mph - N/A   Partly Cloudy
11:08 PM 66.2 °F 64.4 °F 94% 30.10 in 9.0 mi NE 5.8 mph - N/A   Partly Cloudy
11:56 PM 66.0 °F 64.0 °F 93% 30.08 in 8.0 mi ENE 5.8 mph - N/A   Clear